This is the latest recevied weather packets stored in our database for station/object OK2ILA-10. If no packets are shown the sender has not sent any weather packets the latest 10 day(s).
| Time | Temp. | Humidity | Pressure | Rain* | Wind** | Luminosity | Snow |
|---|---|---|---|---|---|---|---|
| 1777698396 | 14.44° C | 56% | 1026.2 hPa | - | - | - | - |
| 1777698392 | 14.44° C | 56% | 1026.2 hPa | - | - | - | - |
| 1777697796 | 12.22° C | 60% | 1026.2 hPa | - | - | - | - |
| 1777697792 | 12.22° C | 60% | 1026.2 hPa | - | - | - | - |
| 1777697196 | 10.56° C | 62% | 1026.2 hPa | - | - | - | - |
| 1777697191 | 10.56° C | 62% | 1026.2 hPa | - | - | - | - |
| 1777696596 | 11.11° C | 61% | 1026.1 hPa | - | - | - | - |
| 1777696591 | 11.11° C | 61% | 1026.1 hPa | - | - | - | - |
| 1777695996 | 10.56° C | 61% | 1026.1 hPa | - | - | - | - |
| 1777695991 | 10.56° C | 61% | 1026.1 hPa | - | - | - | - |
| 1777695396 | 10.56° C | 61% | 1026 hPa | - | - | - | - |
| 1777695391 | 10.56° C | 61% | 1026 hPa | - | - | - | - |
| 1777694791 | 9.44° C | 65% | 1025.9 hPa | - | - | - | - |
| 1777694196 | 6.11° C | 71% | 1025.9 hPa | - | - | - | - |
| 1777694190 | 6.11° C | 71% | 1025.9 hPa | - | - | - | - |
| 1777693596 | 5.56° C | 72% | 1025.9 hPa | - | - | - | - |
| 1777693590 | 5.56° C | 72% | 1025.9 hPa | - | - | - | - |
| 1777692996 | 5.56° C | 71% | 1025.9 hPa | - | - | - | - |
| 1777692990 | 5.56° C | 71% | 1025.9 hPa | - | - | - | - |
| 1777692396 | 5.56° C | 71% | 1025.9 hPa | - | - | - | - |
| 1777692390 | 5.56° C | 71% | 1025.9 hPa | - | - | - | - |
| 1777691796 | 5.56° C | 72% | 1025.9 hPa | - | - | - | - |
| 1777691790 | 5.56° C | 72% | 1025.9 hPa | - | - | - | - |
| 1777691196 | 5.56° C | 71% | 1025.9 hPa | - | - | - | - |
| 1777691189 | 5.56° C | 71% | 1025.9 hPa | - | - | - | - |
* Rain since midnight (hover to see other rain measurements)
** Current wind speed in m/s (hover to see current wind gust speed)